User: anonymous   Login
Location: Summit Observatory
(39.5293°N, 75.7290°W)
Time: 20:26:25
(UTC-04:00)
Language:

Gurwin Techsat 1B - Orbit

View from above orbital plane
View from above orbital plane
View from above satellite
View from above satellite

Ground track
Ground track

The orbit data is extracted from the following two-line orbital elements,

1 25397U 98043D   16126.82934530 -.00000005 +00000-0 +16506-4 0  9998
2 25397 098.5639 072.8782 0002432 096.6582 263.4873 14.23592418925614
Epoch (UTC): 05 May 2016 19:54:15
Eccentricity: 0.0002432
inclination: 98.5639°
perigee height: 811 km
apogee height: 815 km
right ascension of ascending node: 72.8782°
argument of perigee: 96.6582°
revolutions per day: 14.23592418
mean anomaly at epoch: 263.4873°
orbit number at epoch: 92561

The dashed part of the orbit path shows where the satellite is in the earth's shadow,  

DLR